FW8459 Weather Reports


Display with metric or nautical units.
time (UTC)temp
F
wind
direction
speed
MPH
gust
MPH
rain 1hr
in
rain 24hr
in
rain mn
in
humidity
%
barometer
mb
20260902184040 52 253 0.0 0.0 0.00 0.05 0.05 99 1012.7
20260902183536 52 304 0.0 0.0 0.00 0.05 0.05 99 1012.3
20260902183033 52 354 2.0 2.0 0.00 0.05 0.05 99 1012.4
20260902182528 52 13 1.0 1.0 0.00 0.05 0.05 99 1012.1
20260902182025 53 322 1.0 2.0 0.00 0.05 0.05 99 1012.6
20260902181521 53 328 0.0 1.0 0.00 0.05 0.05 99 1012.9
20260902181015 53 308 0.0 0.0 0.00 0.05 0.05 99 1013.0
20260902180514 53 298 0.0 0.0 0.00 0.05 0.05 98 1013.1
20260902180011 53 311 0.0 0.0 0.00 0.05 0.05 98 1013.3
20260902175510 53 339 0.0 1.0 0.00 0.05 0.05 97 1012.8
20260902175007 54 325 0.0 1.0 0.05 0.05 0.05 96 1012.6
20260902174503 54 337 0.0 1.0 0.00 0.04 0.04 95 1013.1
20260902173958 55 315 0.0 0.0 0.07 0.04 0.04 93 1013.6
20260902173457 55 233 1.0 2.0 0.12 0.04 0.04 91 1014.7
20260902172953 55 200 1.0 2.0 0.12 0.03 0.03 90 1014.7
20260902172452 56 183 2.0 2.0 0.14 0.02 0.02 87 1014.7
20260902171947 57 234 3.0 3.0 0.00 0.00 0.00 85 1014.4
20260902171443 57 207 2.0 2.0 0.00 0.00 0.00 83 1014.4
20260902170938 57 194 2.0 2.0 0.00 0.00 0.00 82 1013.4
20260902170433 57 202 2.0 2.0 0.00 0.00 0.00 82 1013.2
20260902165929 57 228 1.0 1.0 0.00 0.00 0.00 82 1013.0
20260902165429 56 212 2.0 2.0 0.00 0.00 0.00 83 1012.9
20260902164929 55 277 0.0 0.0 0.00 0.00 0.00 84 1012.8
20260902164424 55 274 0.0 0.0 0.00 0.00 0.00 84 1012.7
20260902163923 56 286 0.0 0.0 0.00 0.00 0.00 84 1013.0
20260902163419 56 282 0.0 0.0 0.00 0.00 0.00 83 1013.0
20260902162916 56 282 0.0 0.0 0.00 0.00 0.00 82 1013.1
20260902162412 56 302 0.0 0.0 0.00 0.00 0.00 82 1013.3
20260902161912 57 285 0.0 0.0 0.00 0.00 0.00 82 1013.6
20260902161407 57 292 0.0 0.0 0.00 0.00 0.00 81 1013.9
20260902160903 57 319 0.0 1.0 0.00 0.00 0.00 81 1013.7
20260902160358 57 358 2.0 2.0 0.00 0.00 0.00 82 1014.0
20260902155856 57 311 0.0 0.0 0.00 0.00 0.00 82 1014.1
20260902155356 56 306 1.0 1.0 0.00 0.00 0.00 83 1014.3
20260902154850 56 342 0.0 1.0 0.00 0.00 0.00 85 1014.4
20260902154346 56 307 0.0 0.0 0.00 0.00 0.00 85 1014.3
20260902153845 56 306 0.0 0.0 0.00 0.00 0.00 84 1014.6
20260902153344 56 297 0.0 0.0 0.00 0.00 0.00 84 1014.8
20260902152840 57 290 0.0 0.0 0.00 0.00 0.00 84 1014.6
20260902152336 57 303 1.0 1.0 0.00 0.00 0.00 84 1014.8
20260902151831 57 301 0.0 0.0 0.00 0.00 0.00 83 1015.1
20260902151326 57 289 0.0 0.0 0.00 0.00 0.00 83 1014.9
20260902150821 57 328 4.0 5.0 0.00 0.00 0.00 83 1015.1
20260902150318 57 4 1.0 1.0 0.00 0.00 0.00 83 1015.2
20260902145817 57 358 1.0 1.0 0.00 0.00 0.00 84 1015.2
20260902145312 57 329 0.0 0.0 0.00 0.00 0.00 84 1015.2
20260902144808 57 340 0.0 1.0 0.00 0.00 0.00 84 1015.5
20260902144303 57 342 1.0 2.0 0.00 0.00 0.00 83 1015.5
20260902143758 58 16 1.0 2.0 0.00 0.00 0.00 83 1015.3
20260902143253 58 20 1.0 1.0 0.00 0.00 0.00 83 1015.3
20260902142749 58 313 2.0 2.0 0.00 0.00 0.00 82 1015.8
20260902142245 58 6 0.0 1.0 0.00 0.00 0.00 82 1016.1
20260902141744 58 331 1.0 2.0 0.00 0.00 0.00 83 1015.9
20260902141241 57 282 1.0 1.0 0.00 0.00 0.00 83 1015.8
20260902140741 57 350 1.0 1.0 0.00 0.00 0.00 84 1016.1
20260902140236 57 5 1.0 2.0 0.00 0.00 0.00 84 1015.8
20260902135735 57 6 1.0 1.0 0.00 0.00 0.00 85 1015.8
20260902135231 56 274 0.0 1.0 0.00 0.00 0.00 86 1016.0
20260902134730 56 327 0.0 1.0 0.00 0.00 0.00 86 1016.0
20260902134226 57 340 1.0 1.0 0.00 0.00 0.00 86 1016.1
20260902133721 57 329 0.0 1.0 0.00 0.00 0.00 86 1016.3
20260902133220 56 296 2.0 3.0 0.00 0.00 0.00 86 1016.4
20260902132715 56 348 0.0 1.0 0.00 0.00 0.00 87 1016.8
20260902132211 55 229 0.0 1.0 0.00 0.00 0.00 88 1017.2
20260902131706 54 102 1.0 1.0 0.00 0.00 0.00 90 1017.0
20260902131202 53 289 0.0 0.0 0.00 0.00 0.00 89 1017.1
20260902130657 53 303 0.0 0.0 0.00 0.00 0.00 88 1017.2
20260902130153 52 275 0.0 0.0 0.00 0.00 0.00 88 1017.2
20260902125648 52 288 0.0 0.0 0.00 0.00 0.00 88 1017.0
20260902125144 52 288 0.0 0.0 0.00 0.00 0.00 88 1016.8
20260902124640 52 287 0.0 0.0 0.00 0.00 0.00 88 1017.0
20260902124140 52 277 0.0 0.0 0.00 0.00 0.00 88 1017.1
20260902123636 52 283 0.0 0.0 0.00 0.00 0.00 88 1016.7
20260902123137 52 285 0.0 0.0 0.00 0.00 0.00 88 1016.8
20260902122631 51 281 0.0 0.0 0.00 0.00 0.00 88 1017.1
20260902122126 51 269 0.0 0.0 0.00 0.00 0.00 88 1017.0
20260902121621 51 290 0.0 0.0 0.00 0.00 0.00 88 1017.0
20260902121115 51 295 0.0 0.0 0.00 0.00 0.00 88 1017.0
20260902120612 51 286 0.0 0.0 0.00 0.00 0.00 88 1017.3
20260902120108 51 298 0.0 0.0 0.00 0.00 0.00 88 1017.3
20260902115603 51 291 0.0 0.0 0.00 0.00 0.00 88 1017.1
20260902115059 51 305 0.0 0.0 0.00 0.00 0.00 88 1017.3
20260902114555 51 261 0.0 1.0 0.00 0.00 0.00 88 1017.2
20260902114054 51 247 0.0 0.0 0.00 0.00 0.00 87 1017.2
20260902113550 51 256 0.0 1.0 0.00 0.00 0.00 87 1017.1
20260902113045 51 236 0.0 1.0 0.00 0.00 0.00 87 1017.0
20260902112540 51 235 0.0 1.0 0.00 0.00 0.00 86 1017.0
20260902112037 51 247 0.0 1.0 0.00 0.00 0.00 86 1016.8
20260902111533 51 259 0.0 0.0 0.00 0.00 0.00 86 1017.3
20260902111028 52 272 0.0 0.0 0.00 0.00 0.00 85 1017.0
20260902110524 52 248 1.0 1.0 0.00 0.00 0.00 86 1016.8
20260902110019 52 260 0.0 1.0 0.00 0.00 0.00 85 1017.0
20260902105514 52 269 0.0 0.0 0.00 0.00 0.00 84 1016.6
20260902105014 52 278 0.0 0.0 0.00 0.00 0.00 84 1016.7
20260902104510 52 285 0.0 0.0 0.00 0.00 0.00 83 1017.0
20260902104004 52 286 0.0 0.0 0.00 0.00 0.00 83 1017.0
20260902103459 52 253 0.0 0.0 0.00 0.00 0.00 83 1017.0
20260902102954 53 294 0.0 0.0 0.00 0.00 0.00 82 1016.8
20260902102451 53 292 0.0 0.0 0.00 0.00 0.00 81 1017.2
20260902101947 53 282 0.0 0.0 0.00 0.00 0.00 80 1017.0
20260902101442 54 278 0.0 0.0 0.00 0.00 0.00 79 1017.2
20260902100941 54 269 0.0 0.0 0.00 0.00 0.00 80 1017.2
20260902100436 54 257 0.0 0.0 0.00 0.00 0.00 79 1017.2
20260902095936 54 282 0.0 0.0 0.00 0.00 0.00 77 1016.8
20260902095431 55 280 0.0 0.0 0.00 0.00 0.00 77 1017.3
20260902094930 55 274 0.0 0.0 0.00 0.00 0.00 76 1017.0
20260902094426 56 269 0.0 0.0 0.00 0.00 0.00 75 1017.0
20260902093920 56 247 0.0 1.0 0.00 0.00 0.00 75 1016.8
20260902093415 57 258 0.0 0.0 0.00 0.00 0.00 74 1016.7
20260902092914 57 274 0.0 0.0 0.00 0.00 0.00 72 1016.6
20260902092410 57 275 0.0 0.0 0.00 0.00 0.00 72 1016.7
20260902091910 58 242 0.0 1.0 0.00 0.00 0.00 72 1017.0
20260902091406 58 272 0.0 0.0 0.00 0.00 0.00 71 1016.7
20260902090903 59 304 0.0 0.0 0.00 0.00 0.00 70 1016.6
20260902090402 59 15 0.0 0.0 0.00 0.00 0.00 69 1016.8
20260902085901 59 256 0.0 0.0 0.00 0.00 0.00 68 1016.6
20260902085356 60 288 0.0 0.0 0.00 0.00 0.00 67 1016.5
20260902084852 60 299 0.0 1.0 0.00 0.00 0.00 67 1016.6
20260902084348 60 312 0.0 0.0 0.00 0.00 0.00 67 1016.7
20260902083843 60 11 0.0 1.0 0.00 0.00 0.00 67 1016.6
20260902083343 60 221 0.0 0.0 0.00 0.00 0.00 65 1017.1
20260902082838 60 261 0.0 0.0 0.00 0.00 0.00 64 1017.0
20260902082334 61 273 0.0 0.0 0.00 0.00 0.00 63 1016.8
20260902081830 61 256 0.0 0.0 0.00 0.00 0.00 62 1017.0
20260902081326 62 253 1.0 1.0 0.00 0.00 0.00 62 1016.6
20260902080821 62 269 0.0 0.0 0.00 0.00 0.00 60 1017.1
20260902080318 63 223 0.0 0.0 0.00 0.00 0.00 59 1017.0
20260902075817 63 173 1.0 2.0 0.00 0.00 0.00 59 1017.0
20260902075313 64 273 0.0 1.0 0.00 0.00 0.00 58 1017.0
20260902074808 64 233 1.0 1.0 0.00 0.00 0.00 57 1016.8
20260902074303 65 129 1.0 1.0 0.00 0.00 0.00 56 1016.5
20260902073758 65 255 1.0 1.0 0.00 0.00 0.00 55 1016.4
20260902073254 66 205 2.0 3.0 0.00 0.00 0.00 55 1016.5
20260902072750 66 125 0.0 1.0 0.00 0.00 0.00 54 1016.6
20260902072245 67 201 2.0 2.0 0.00 0.00 0.00 53 1016.3
20260902071742 67 46 1.0 1.0 0.00 0.00 0.00 53 1016.3
20260902071236 67 286 1.0 1.0 0.00 0.00 0.00 53 1016.6
20260902070733 68 261 1.0 2.0 0.00 0.00 0.00 52 1016.4
20260902070232 68 232 5.0 7.0 0.00 0.00 0.00 51 1016.4
20260902065731 68 191 3.0 5.0 0.00 0.00 0.00 51 1016.4
20260902065227 68 73 3.0 5.0 0.00 0.00 0.00 51 1016.4
20260902064722 69 319 2.0 2.0 0.00 0.00 0.00 51 1016.2
20260902064218 69 224 3.0 5.0 0.00 0.00 0.00 52 1016.5
20260902063714 69 233 2.0 2.0 0.00 0.00 0.00 54 1016.4
20260902063208 69 170 2.0 3.0 0.00 0.00 0.00 56 1016.4
20260902062708 69 236 2.0 2.0 0.00 0.00 0.00 56 1016.2
20260902062203 69 4 1.0 1.0 0.00 0.00 0.00 55 1016.4
20260902061701 69 247 0.0 1.0 0.00 0.00 0.00 54 1016.4
20260902061157 69 166 0.0 1.0 0.00 0.00 0.00 54 1016.5
20260902060654 70 260 1.0 2.0 0.00 0.00 0.00 53 1016.4
20260902060150 70 182 3.0 5.0 0.00 0.00 0.00 52 1016.6
20260902055645 70 218 3.0 3.0 0.00 0.00 0.00 53 1016.5
20260902055141 69 251 1.0 1.0 0.00 0.00 0.00 53 1016.3
20260902054636 70 133 2.0 3.0 0.00 0.00 0.00 52 1016.4
20260902054131 71 159 2.0 3.0 0.00 0.00 0.00 51 1016.4
20260902053627 70 184 3.0 5.0 0.00 0.00 0.00 52 1016.4
20260902053121 70 247 2.0 2.0 0.00 0.00 0.00 52 1016.5
20260902052621 70 246 4.0 6.0 0.00 0.00 0.00 51 1016.4
20260902052117 70 189 2.0 5.0 0.00 0.00 0.00 52 1016.4
20260902051616 71 147 2.0 2.0 0.00 0.00 0.00 50 1016.4
20260902051115 72 196 2.0 2.0 0.00 0.00 0.00 50 1016.5
20260902050610 72 170 2.0 3.0 0.00 0.00 0.00 50 1016.3
20260902050105 73 151 3.0 5.0 0.00 0.00 0.00 49 1016.6
20260902045601 73 312 3.0 5.0 0.00 0.00 0.00 48 1016.5
20260902045057 73 315 4.0 7.0 0.00 0.00 0.00 50 1016.2
20260902044556 72 76 4.0 9.0 0.00 0.00 0.00 52 1016.4
20260902044052 72 223 4.0 6.0 0.00 0.00 0.00 52 1016.2
20260902043548 71 70 1.0 2.0 0.00 0.00 0.00 53 1016.6
20260902043043 71 188 3.0 3.0 0.00 0.00 0.00 53 1016.4
20260902042542 73 266 4.0 5.0 0.00 0.00 0.00 50 1016.5
20260902042037 72 241 1.0 1.0 0.00 0.00 0.00 52 1016.6
20260902041532 73 71 1.0 2.0 0.00 0.00 0.00 50 1016.6
20260902041027 74 191 5.0 6.0 0.00 0.00 0.00 49 1016.5
20260902040526 74 303 2.0 2.0 0.00 0.00 0.00 49 1016.4
20260902040027 73 251 3.0 3.0 0.00 0.00 0.00 49 1016.7
20260902035520 73 219 2.0 2.0 0.00 0.00 0.00 50 1016.6
20260902035016 73 244 3.0 5.0 0.00 0.00 0.00 50 1016.7
20260902034515 73 36 2.0 3.0 0.00 0.00 0.00 50 1016.6
20260902034014 73 23 3.0 5.0 0.00 0.00 0.00 49 1017.0
20260902033513 74 191 3.0 3.0 0.00 0.00 0.00 48 1017.1
20260902033008 73 285 5.0 6.0 0.00 0.00 0.00 49 1017.0
20260902032502 73 171 2.0 2.0 0.00 0.00 0.00 49 1017.3
20260902031956 73 286 2.0 3.0 0.00 0.00 0.00 48 1017.3
20260902031452 73 35 1.0 2.0 0.00 0.00 0.00 48 1017.2
20260902030948 73 353 3.0 3.0 0.00 0.00 0.00 46 1017.3
20260902030448 73 343 3.0 6.0 0.00 0.00 0.00 46 1017.4
20260902025946 73 124 2.0 3.0 0.00 0.00 0.00 47 1017.5
20260902025442 72 187 1.0 2.0 0.00 0.00 0.00 47 1017.7
20260902024937 71 171 3.0 7.0 0.00 0.00 0.00 49 1017.6
20260902024432 72 249 5.0 8.0 0.00 0.00 0.00 48 1017.8
20260902023927 72 285 1.0 2.0 0.00 0.00 0.00 48 1017.9
20260902023424 72 62 3.0 3.0 0.00 0.00 0.00 49 1018.0
20260902022922 72 243 1.0 2.0 0.00 0.00 0.00 50 1017.9
20260902022417 72 224 1.0 1.0 0.00 0.00 0.00 50 1018.1
20260902021914 72 285 1.0 1.0 0.00 0.00 0.00 52 1018.1
20260902021413 71 174 3.0 5.0 0.00 0.00 0.00 51 1018.4
20260902020909 72 329 1.0 1.0 0.00 0.00 0.00 51 1018.6
20260902020405 72 202 4.0 7.0 0.00 0.00 0.00 52 1018.7
20260902015900 72 285 2.0 5.0 0.00 0.00 0.00 53 1018.8
20260902015355 70 5 1.0 2.0 0.00 0.00 0.00 54 1018.6
20260902014851 70 67 2.0 3.0 0.00 0.00 0.00 54 1018.8
20260902014348 70 107 3.0 3.0 0.00 0.00 0.00 53 1018.8
20260902013847 71 125 2.0 3.0 0.00 0.00 0.00 54 1018.8
20260902013342 70 245 2.0 3.0 0.00 0.00 0.00 55 1019.0
20260902012838 71 142 2.0 3.0 0.00 0.00 0.00 54 1019.2
20260902012334 71 158 1.0 2.0 0.00 0.00 0.00 55 1019.2
20260902011829 71 244 2.0 2.0 0.00 0.00 0.00 54 1019.1
20260902011324 71 348 1.0 2.0 0.00 0.00 0.00 56 1019.0
20260902010823 71 187 2.0 3.0 0.00 0.00 0.00 56 1019.1
20260902010318 69 193 4.0 7.0 0.00 0.00 0.00 56 1019.3
20260902005817 70 189 4.0 5.0 0.00 0.00 0.00 55 1019.3
20260902005312 69 359 2.0 2.0 0.00 0.00 0.00 57 1019.3
20260902004807 69 42 1.0 1.0 0.00 0.00 0.00 57 1019.4
20260902004302 69 306 2.0 2.0 0.00 0.00 0.00 57 1019.4
20260902003756 68 231 1.0 1.0 0.00 0.00 0.00 60 1019.5
20260902003252 69 43 1.0 1.0 0.00 0.00 0.00 58 1019.6
20260902002748 68 59 1.0 1.0 0.00 0.00 0.00 60 1019.7
20260902002247 69 246 3.0 3.0 0.00 0.00 0.00 58 1019.7
20260902001743 68 221 1.0 1.0 0.00 0.00 0.00 60 1019.5
20260902001238 67 75 3.0 5.0 0.00 0.00 0.00 60 1019.7
20260902000738 68 257 3.0 5.0 0.00 0.00 0.00 59 1019.7
20260902000233 68 261 2.0 2.0 0.00 0.00 0.00 60 1019.6
20260901235727 67 149 2.0 3.0 0.00 0.00 0.00 61 1019.7
20260901235222 66 130 2.0 2.0 0.00 0.00 0.00 61 1019.6
20260901234722 66 265 4.0 6.0 0.00 0.00 0.00 61 1019.5
20260901234222 67 179 3.0 5.0 0.00 0.00 0.00 60 1019.8
20260901233716 66 28 1.0 1.0 0.00 0.00 0.00 63 1019.7
20260901233213 66 253 1.0 2.0 0.00 0.00 0.00 63 1019.5
20260901232713 65 212 3.0 3.0 0.00 0.00 0.00 64 1019.7
20260901232208 64 26 2.0 3.0 0.00 0.00 0.00 64 1019.9
20260901231704 65 153 3.0 3.0 0.00 0.00 0.00 63 1019.9
20260901231200 64 201 2.0 2.0 0.00 0.00 0.00 64 1019.9
20260901230656 64 172 4.0 7.0 0.00 0.00 0.00 67 1019.7
20260901230155 63 82 4.0 6.0 0.00 0.00 0.00 66 1020.0
20260901225651 63 205 2.0 5.0 0.00 0.00 0.00 68 1020.0
20260901225145 62 157 1.0 2.0 0.00 0.00 0.00 69 1019.8
20260901224641 61 189 1.0 2.0 0.00 0.00 0.00 70 1019.9
20260901224137 61 274 0.0 0.0 0.00 0.00 0.00 71 1019.9
20260901223632 61 282 1.0 1.0 0.00 0.00 0.00 71 1019.9
20260901223128 60 238 1.0 1.0 0.00 0.00 0.00 74 1019.9
20260901222624 59 301 2.0 2.0 0.00 0.00 0.00 75 1020.2
20260901222120 59 309 1.0 2.0 0.00 0.00 0.00 76 1020.2
20260901221615 58 75 1.0 2.0 0.00 0.00 0.00 78 1020.0
20260901221111 58 139 1.0 2.0 0.00 0.00 0.00 79 1020.0
20260901220610 57 287 1.0 2.0 0.00 0.00 0.00 80 1019.8
20260901220109 57 321 0.0 1.0 0.00 0.00 0.00 82 1019.7
20260901215608 57 307 0.0 0.0 0.00 0.00 0.00 82 1020.0
20260901215102 56 305 0.0 0.0 0.00 0.00 0.00 82 1019.9
20260901214601 56 307 0.0 0.0 0.00 0.00 0.00 82 1020.2
20260901214055 56 284 0.0 0.0 0.00 0.00 0.00 82 1020.0
20260901213555 56 75 0.0 1.0 0.00 0.00 0.00 82 1019.8
20260901213049 56 32 1.0 1.0 0.00 0.00 0.00 83 1019.7
20260901212543 55 14 1.0 1.0 0.00 0.00 0.00 87 1019.8
20260901212040 54 331 0.0 0.0 0.00 0.00 0.00 88 1019.7
20260901211535 54 289 0.0 0.0 0.00 0.00 0.00 88 1019.5
20260901211032 53 252 0.0 1.0 0.00 0.00 0.00 88 1019.5
20260901210526 53 288 0.0 0.0 0.00 0.00 0.00 88 1019.4
20260901210023 53 316 0.0 0.0 0.00 0.00 0.00 89 1019.5
20260901205518 53 295 0.0 0.0 0.00 0.00 0.00 89 1019.4
20260901205018 53 273 0.0 0.0 0.00 0.00 0.00 89 1019.3
20260901204514 53 318 0.0 0.0 0.00 0.00 0.00 89 1019.2
20260901204009 53 309 0.0 0.0 0.00 0.00 0.00 89 1019.2
20260901203503 53 246 0.0 1.0 0.00 0.00 0.00 88 1019.4
20260901202958 53 275 0.0 0.0 0.00 0.00 0.00 88 1019.4
20260901202454 53 108 0.0 1.0 0.00 0.00 0.00 88 1019.1
20260901201949 53 342 0.0 0.0 0.00 0.00 0.00 88 1019.3
20260901201443 53 320 0.0 0.0 0.00 0.00 0.00 88 1019.1
20260901200938 53 258 0.0 1.0 0.00 0.00 0.00 87 1019.2
20260901200433 53 9 0.0 1.0 0.00 0.00 0.00 87 1019.1
20260901195932 53 305 0.0 0.0 0.00 0.00 0.00 87 1019.3
20260901195431 53 195 1.0 2.0 0.00 0.00 0.00 87 1019.6
20260901194926 53 329 1.0 2.0 0.00 0.00 0.00 87 1019.2
20260901194420 53 293 0.0 0.0 0.00 0.00 0.00 87 1019.6
20260901193917 53 34 1.0 2.0 0.00 0.00 0.00 87 1019.3
20260901193416 53 356 0.0 1.0 0.00 0.00 0.00 87 1019.4
20260901192916 54 298 0.0 0.0 0.00 0.00 0.00 87 1019.5
20260901192412 54 338 2.0 3.0 0.00 0.00 0.00 86 1019.5
20260901191908 54 261 1.0 2.0 0.00 0.00 0.00 85 1019.6
20260901191403 55 242 1.0 1.0 0.00 0.00 0.00 84 1019.5
20260901190858 55 45 1.0 1.0 0.00 0.00 0.00 82 1020.2
20260901190353 55 179 1.0 2.0 0.00 0.00 0.00 80 1020.2
20260901185851 55 238 1.0 3.0 0.00 0.00 0.00 80 1020.0
20260901185350 55 120 1.0 2.0 0.00 0.00 0.00 80 1019.8
20260901184845 55 89 1.0 1.0 0.00 0.00 0.00 79 1019.6
20260901184341 55 139 2.0 2.0 0.00 0.00 0.00 80 1019.3